Philadelphia Wings Airport, PA

12:09 AM EDT on October 24, 2017 (GMT -0400)
Philadelphia Wings Airport

Weather History for KLOM - December, 2012

Change the Weather History Date:

Saturday, December 29, 2012

  Actual Average (KPNE) Record (KPNE)
Temperature  
Mean Temperature 32 °F -  
Max Temperature 33 °F 39 °F 55 °F (1996)
Min Temperature 30 °F 25 °F 14 °F (2000)
Degree Days  
Heating Degree Days 34    
Moisture  
Dew Point 29 °F    
Average Humidity 90    
Maximum Humidity 100    
Minimum Humidity 80    
Precipitation  
Precipitation 0.19 in - - ()
Sea Level Pressure  
Sea Level Pressure 29.75 in    
Wind  
Wind Speed 2 mph (NNE)    
Max Wind Speed 10 mph    
Max Gust Speed 16 mph    
Visibility 7 miles    
Events      
Averages and records for this station are not official NWS values.
T = Trace of Precipitation, MM = Missing Value Source: NWS Daily Summary

Daily Weather History Graph

Daily Weather History Graph

Search for Another Location

Airport or City:

Trip Planner

Search our weather history database for the weather conditions in past years. The results will help you decide how hot, cold, wet, or windy it might be!

Date:

Astronomy

Dec. 29, 2012 Rise Set
Actual Time 7:22 AM EST 4:44 PM EST
Civil Twilight 6:52 AM EST 5:14 PM EST
Nautical Twilight 6:18 AM EST 5:48 PM EST
Astronomical Twilight 5:45 AM EST 6:21 PM EST
Moon 6:14 PM EST (12/29) 7:54 AM EST (12/29)
Length of Visible Light 10h 22m
Length of Day
9h 21m
Full, 98% of the Moon is Illuminated
Dec 29
Full
Jan 4
Last Quarter
Jan 11
New
Jan 18
First Quarter
Jan 26
Full

Hourly Weather History & Observations

Time (EST) Temp. Windchill Dew Point Humidity Pressure Visibility Wind Dir Wind Speed Gust Speed Precip Events Conditions
12:15 AM 30.2 °F - 28.4 °F 93% 30.04 in 10.0 mi Calm Calm - N/A   Clear
12:35 AM 30.2 °F - 28.4 °F 93% 30.03 in 10.0 mi Calm Calm - N/A   Clear
12:55 AM 30.2 °F - 28.4 °F 93% 30.02 in 10.0 mi Calm Calm - N/A   Clear
1:15 AM 32.0 °F - 26.6 °F 80% 30.01 in 10.0 mi Calm Calm - N/A   Clear
1:35 AM 30.2 °F - 26.6 °F 86% 30.02 in 10.0 mi Calm Calm - N/A   Clear
1:55 AM 30.2 °F - 26.6 °F 86% 30.02 in 10.0 mi Calm Calm - N/A   Clear
2:15 AM 30.2 °F - 26.6 °F 86% 30.01 in 10.0 mi Calm Calm - N/A   Clear
2:35 AM 30.2 °F - 26.6 °F 86% 30.02 in 10.0 mi Calm Calm - N/A   Clear
2:55 AM 30.2 °F - 26.6 °F 86% 30.01 in 10.0 mi Calm Calm - N/A   Clear
3:15 AM 30.2 °F - 28.4 °F 93% 30.01 in 10.0 mi Calm Calm - N/A   Clear
3:35 AM 32.0 °F - 26.6 °F 80% 30.00 in 10.0 mi Calm Calm - N/A   Clear
3:55 AM 30.2 °F - 26.6 °F 86% 30.00 in 10.0 mi Calm Calm - N/A   Clear
4:15 AM 32.0 °F - 26.6 °F 80% 30.00 in 10.0 mi Calm Calm - N/A   Clear
4:35 AM 32.0 °F 28.7 °F 26.6 °F 80% 29.97 in 10.0 mi ENE 3.5 mph - N/A   Clear
4:55 AM 32.0 °F - 26.6 °F 80% 29.96 in 10.0 mi Calm Calm - N/A   Clear
5:15 AM 32.0 °F 27.5 °F 26.6 °F 80% 29.93 in 10.0 mi East 4.6 mph - N/A   Clear
5:35 AM 32.0 °F 27.5 °F 26.6 °F 80% 29.95 in 10.0 mi SE 4.6 mph - N/A   Scattered Clouds
5:55 AM 32.0 °F 26.4 °F 26.6 °F 80% 29.92 in 10.0 mi East 5.8 mph - N/A   Scattered Clouds
6:15 AM 32.0 °F 26.4 °F 26.6 °F 80% 29.90 in 10.0 mi East 5.8 mph - N/A   Clear
6:35 AM 32.0 °F 27.5 °F 26.6 °F 80% 29.90 in 10.0 mi East 4.6 mph - N/A   Clear
6:55 AM 32.0 °F 27.5 °F 26.6 °F 80% 29.88 in 10.0 mi ENE 4.6 mph - N/A   Scattered Clouds
7:15 AM 32.0 °F 28.7 °F 26.6 °F 80% 29.88 in 10.0 mi ENE 3.5 mph - N/A   Overcast
7:35 AM 32.0 °F - 28.4 °F 87% 29.88 in 10.0 mi Calm Calm - N/A   Overcast
7:55 AM 32.0 °F 28.7 °F 28.4 °F 87% 29.87 in 10.0 mi ENE 3.5 mph - N/A   Mostly Cloudy
8:15 AM 32.0 °F 26.4 °F 28.4 °F 87% 29.86 in 10.0 mi ENE 5.8 mph - N/A   Scattered Clouds
8:35 AM 32.0 °F 26.4 °F 28.4 °F 87% 29.84 in 10.0 mi ENE 5.8 mph - N/A   Clear
8:55 AM 32.0 °F 25.6 °F 28.4 °F 87% 29.81 in 10.0 mi ENE 6.9 mph - N/A   Scattered Clouds
9:15 AM 32.0 °F 24.8 °F 28.4 °F 87% 29.80 in 10.0 mi NE 8.1 mph - N/A   Scattered Clouds
9:35 AM 32.0 °F 26.4 °F 28.4 °F 87% 29.80 in 10.0 mi NE 5.8 mph - N/A   Mostly Cloudy
9:55 AM 32.0 °F 26.4 °F 28.4 °F 87% 29.79 in 10.0 mi NE 5.8 mph - N/A   Overcast
10:15 AM 32.0 °F 26.4 °F 28.4 °F 87% 29.77 in 10.0 mi ENE 5.8 mph - N/A   Overcast
10:35 AM 32.0 °F 26.4 °F 30.2 °F 93% 29.76 in 10.0 mi ENE 5.8 mph - N/A   Mostly Cloudy
10:55 AM 32.0 °F 26.4 °F 30.2 °F 93% 29.75 in 5.0 mi ENE 5.8 mph - N/A   Mostly Cloudy
11:15 AM 32.0 °F 27.5 °F 30.2 °F 93% 29.73 in 0.8 mi ENE 4.6 mph - N/A   Overcast
11:35 AM 32.0 °F 27.5 °F 32.0 °F 100% 29.71 in 0.5 mi ENE 4.6 mph - 0.02 in   Overcast
11:55 AM 32.0 °F - 32.0 °F 100% 29.69 in 0.2 mi Calm Calm - 0.07 in   Overcast
12:15 PM 32.0 °F - 32.0 °F 100% 29.67 in 0.5 mi Calm Calm - 0.03 in   Overcast
12:35 PM 32.0 °F - 32.0 °F 100% 29.66 in 0.8 mi Calm Calm - 0.04 in   Overcast
12:55 PM 32.0 °F - 32.0 °F 100% 29.64 in 0.5 mi Calm Calm - 0.06 in   Overcast
1:15 PM 33.8 °F - 32.0 °F 93% 29.63 in 0.5 mi Calm Calm - 0.02 in   Overcast
1:35 PM 32.0 °F - 32.0 °F 100% 29.62 in 1.0 mi Calm Calm - 0.02 in   Overcast
1:55 PM 33.8 °F - 32.0 °F 93% 29.61 in 1.0 mi Calm Calm - 0.03 in   Overcast
2:15 PM 33.8 °F 30.8 °F 32.0 °F 93% 29.59 in 1.0 mi NNE 3.5 mph - N/A   Overcast
2:35 PM 32.0 °F - 32.0 °F 100% 29.59 in 1.0 mi Calm Calm - 0.01 in   Overcast
2:55 PM 32.0 °F - 32.0 °F 100% 29.57 in 1.5 mi Calm Calm - 0.02 in   Overcast
3:15 PM 32.0 °F - 32.0 °F 100% 29.55 in 1.8 mi Calm Calm - 0.01 in   Overcast
3:35 PM 33.8 °F - 32.0 °F 93% 29.54 in 2.5 mi Calm Calm - 0.01 in   Overcast
3:55 PM 33.8 °F - 32.0 °F 93% 29.53 in 3.0 mi Calm Calm - 0.01 in   Overcast
4:15 PM 33.8 °F - 32.0 °F 93% 29.52 in 3.0 mi Calm Calm - N/A   Overcast
4:35 PM 33.8 °F - 32.0 °F 93% 29.52 in 4.0 mi Calm Calm - N/A   Overcast
4:55 PM 33.8 °F - 32.0 °F 93% 29.52 in 4.0 mi Calm Calm - N/A   Overcast
5:15 PM 33.8 °F - 32.0 °F 93% 29.53 in 2.5 mi Calm Calm - N/A   Overcast
5:35 PM 32.0 °F 28.7 °F 32.0 °F 100% 29.53 in 5.0 mi NW 3.5 mph - N/A   Overcast
5:55 PM 32.0 °F 28.7 °F 32.0 °F 100% 29.53 in 5.0 mi NW 3.5 mph - N/A   Overcast
6:15 PM 32.0 °F 26.4 °F 32.0 °F 100% 29.54 in 5.0 mi WNW 5.8 mph - N/A   Overcast
6:35 PM 32.0 °F 28.7 °F 32.0 °F 100% 29.54 in 7.0 mi NW 3.5 mph - N/A   Overcast
6:55 PM 32.0 °F - 32.0 °F 100% 29.55 in 10.0 mi Calm Calm - N/A   Mostly Cloudy
7:15 PM 32.0 °F - 32.0 °F 100% 29.55 in 7.0 mi Calm Calm - N/A   Overcast
7:35 PM 32.0 °F - 30.2 °F 93% 29.56 in 7.0 mi Calm Calm - N/A   Overcast
7:55 PM 32.0 °F - 30.2 °F 93% 29.57 in 7.0 mi Calm Calm - N/A   Overcast
8:15 PM 32.0 °F 24.2 °F 30.2 °F 93% 29.58 in 7.0 mi West 9.2 mph - N/A   Overcast
8:35 PM 32.0 °F 25.6 °F 30.2 °F 93% 29.59 in 7.0 mi WNW 6.9 mph - N/A   Mostly Cloudy
8:55 PM 32.0 °F 24.8 °F 30.2 °F 93% 29.60 in 7.0 mi WNW 8.1 mph - N/A   Scattered Clouds
9:15 PM 32.0 °F 26.4 °F 30.2 °F 93% 29.61 in 10.0 mi WNW 5.8 mph - N/A   Mostly Cloudy
9:35 PM 32.0 °F 24.2 °F 30.2 °F 93% 29.62 in 10.0 mi WNW 9.2 mph 16.1 mph N/A   Overcast
9:55 PM 32.0 °F 26.4 °F 28.4 °F 87% 29.62 in 10.0 mi WNW 5.8 mph - N/A   Overcast
10:15 PM 32.0 °F 24.8 °F 28.4 °F 87% 29.64 in 10.0 mi WNW 8.1 mph - N/A   Mostly Cloudy
10:35 PM 32.0 °F 24.8 °F 28.4 °F 87% 29.65 in 10.0 mi WNW 8.1 mph - N/A   Overcast
10:55 PM 32.0 °F 24.8 °F 28.4 °F 87% 29.66 in 10.0 mi WNW 8.1 mph - N/A   Overcast
11:15 PM 32.0 °F 23.6 °F 28.4 °F 87% 29.66 in 10.0 mi WNW 10.4 mph 16.1 mph N/A   Overcast
11:35 PM 32.0 °F 24.8 °F 28.4 °F 87% 29.67 in 10.0 mi WNW 8.1 mph - N/A   Overcast
11:55 PM 32.0 °F 24.8 °F 26.6 °F 80% 29.68 in 10.0 mi WNW 8.1 mph - N/A   Overcast